Precipitable_Water
0.84 0.83 0.84 0.86 0.92 0.97 1.03 1.05 1.03 0.96 0.85 0.76 0.73 0.74 0.72 0.66 0.60 0.58 0.68 0.73 0.68 0.64 0.65 0.57 0.52 0.45 0.38 0.24 0.20 0.36 0.36 0.37 0.37 0.34 0.27 0.26 0.24 0.24 0.20 0.22 0.24 0.22 0.22 0.20 0.23 0.23 0.21
0.46 0.45 0.44 0.47 0.51 0.57 0.61 0.64 0.68 0.79 0.93 1.00 0.97 0.83 0.68 0.66 0.67 0.62 0.55 0.56 0.68 0.69 0.60 0.66 0.60 0.54 0.34 0.21 0.31 0.36 0.33 0.34 0.31 0.28 0.26 0.25 0.23 0.25 0.21 0.20 0.18 0.21 0.21 0.19 0.21 0.20 0.21
0.43 0.43 0.43 0.43 0.42 0.42 0.45 0.47 0.48 0.51 0.57 0.62 0.67 0.82 0.93 0.87 0.69 0.61 0.60 0.58 0.52 0.55 0.67 0.57 0.64 0.57 0.36 0.25 0.37 0.41 0.37 0.32 0.33 0.36 0.28 0.32 0.29 0.25 0.23 0.19 0.22 0.21 0.17 0.19 0.21 0.23 0.24
0.46 0.47 0.46 0.46 0.47 0.47 0.48 0.48 0.48 0.48 0.48 0.50 0.49 0.51 0.53 0.62 0.82 0.84 0.66 0.56 0.55 0.49 0.55 0.57 0.59 0.53 0.34 0.43 0.39 0.37 0.39 0.37 0.40 0.41 0.39 0.41 0.39 0.33 0.28 0.31 0.27 0.21 0.22 0.17 0.23 0.28 0.31
0.47 0.47 0.47 0.47 0.46 0.45 0.45 0.47 0.46 0.46 0.50 0.52 0.51 0.49 0.47 0.45 0.43 0.45 0.76 0.84 0.53 0.47 0.54 0.51 0.46 0.42 0.30 0.46 0.40 0.42 0.38 0.35 0.38 0.39 0.42 0.43 0.39 0.30 0.30 0.26 0.23 0.24 0.18 0.21 0.23 0.31 0.31
0.53 0.54 0.54 0.54 0.53 0.51 0.50 0.47 0.47 0.47 0.47 0.49 0.49 0.49 0.48 0.46 0.42 0.39 0.34 0.53 0.79 0.64 0.49 0.49 0.45 0.36 0.38 0.32 0.39 0.43 0.47 0.43 0.37 0.37 0.35 0.33 0.32 0.27 0.27 0.24 0.16 0.19 0.21 0.23 0.22 0.29 0.31
0.57 0.57 0.57 0.56 0.56 0.56 0.54 0.53 0.52 0.50 0.48 0.46 0.46 0.47 0.45 0.42 0.38 0.33 0.34 0.38 0.33 0.44 0.60 0.32 0.26 0.28 0.30 0.37 0.46 0.39 0.45 0.46 0.42 0.37 0.26 0.30 0.24 0.21 0.25 0.27 0.24 0.23 0.24 0.23 0.26 0.29 0.27
0.55 0.56 0.55 0.56 0.55 0.53 0.54 0.53 0.52 0.47 0.44 0.45 0.43 0.42 0.46 0.44 0.35 0.31 0.48 0.38 0.36 0.45 0.26 0.43 0.50 0.36 0.34 0.39 0.32 0.37 0.45 0.36 0.37 0.31 0.33 0.30 0.22 0.26 0.29 0.28 0.27 0.25 0.22 0.21 0.25 0.30 0.28
0.58 0.57 0.57 0.55 0.53 0.52 0.50 0.50 0.50 0.49 0.47 0.44 0.40 0.38 0.37 0.40 0.32 0.49 0.43 0.52 0.59 0.56 0.31 0.27 0.31 0.39 0.37 0.33 0.30 0.33 0.38 0.36 0.30 0.31 0.31 0.25 0.27 0.33 0.30 0.27 0.26 0.26 0.24 0.23 0.24 0.29 0.30
0.58 0.58 0.54 0.54 0.50 0.49 0.52 0.53 0.51 0.49 0.48 0.45 0.41 0.35 0.36 0.38 0.26 0.36 0.32 0.70 0.76 0.67 0.23 0.17 0.23 0.27 0.35 0.44 0.25 0.34 0.40 0.33 0.32 0.26 0.31 0.32 0.33 0.31 0.30 0.28 0.28 0.23 0.30 0.29 0.28 0.26 0.20
0.55 0.53 0.53 0.51 0.49 0.48 0.52 0.53 0.55 0.54 0.51 0.47 0.44 0.40 0.37 0.33 0.28 0.27 0.32 0.48 0.75 0.64 0.12 0.15 0.23 0.38 0.35 0.29 0.36 0.30 0.38 0.35 0.25 0.28 0.30 0.26 0.32 0.31 0.30 0.30 0.33 0.28 0.33 0.31 0.30 0.27 0.27
0.54 0.54 0.54 0.50 0.50 0.49 0.45 0.49 0.50 0.51 0.50 0.48 0.45 0.42 0.39 0.30 0.26 0.25 0.38 0.51 0.51 0.30 0.16 0.13 0.24 0.29 0.30 0.31 0.30 0.41 0.37 0.39 0.37 0.31 0.30 0.29 0.38 0.37 0.36 0.37 0.37 0.37 0.34 0.33 0.32 0.30 0.22
0.53 0.53 0.51 0.51 0.50 0.50 0.51 0.46 0.46 0.47 0.47 0.46 0.41 0.39 0.38 0.37 0.22 0.31 0.36 0.35 0.21 0.19 0.25 0.16 0.17 0.24 0.30 0.29 0.31 0.34 0.35 0.32 0.27 0.24 0.22 0.28 0.30 0.35 0.37 0.34 0.40 0.37 0.31 0.24 0.23 0.22 0.19
0.52 0.54 0.57 0.57 0.56 0.57 0.56 0.54 0.50 0.50 0.46 0.46 0.44 0.35 0.31 0.34 0.37 0.40 0.37 0.22 0.08 0.14 0.30 0.21 0.25 0.17 0.18 0.23 0.31 0.34 0.34 0.31 0.34 0.30 0.26 0.21 0.21 0.30 0.35 0.30 0.29 0.32 0.31 0.24 0.19 0.21 0.24
0.56 0.57 0.58 0.56 0.55 0.54 0.54 0.55 0.54 0.54 0.53 0.53 0.50 0.29 0.30 0.43 0.51 0.53 0.32 0.16 0.11 0.05 0.05 0.21 0.30 0.26 0.28 0.31 0.29 0.32 0.34 0.31 0.34 0.34 0.26 0.26 0.24 0.35 0.35 0.36 0.33 0.30 0.26 0.31 0.27 0.28 0.26
0.56 0.56 0.54 0.53 0.53 0.54 0.54 0.53 0.55 0.55 0.55 0.55 0.44 0.33 0.24 0.49 0.39 0.32 0.27 0.23 0.21 0.23 0.27 0.23 0.21 0.35 0.27 0.27 0.32 0.31 0.34 0.36 0.34 0.37 0.37 0.32 0.28 0.38 0.38 0.40 0.39 0.34 0.35 0.25 0.28 0.19 0.18
0.55 0.54 0.52 0.50 0.51 0.54 0.55 0.53 0.53 0.53 0.55 0.57 0.43 0.27 0.26 0.34 0.31 0.23 0.12 0.14 0.26 0.34 0.37 0.30 0.21 0.27 0.33 0.35 0.38 0.26 0.29 0.38 0.41 0.39 0.42 0.37 0.37 0.36 0.40 0.34 0.30 0.34 0.31 0.31 0.30 0.27 0.20
0.53 0.52 0.53 0.53 0.53 0.53 0.53 0.54 0.54 0.54 0.56 0.53 0.40 0.24 0.30 0.32 0.19 0.23 0.23 0.28 0.30 0.26 0.37 0.35 0.35 0.25 0.32 0.37 0.38 0.39 0.27 0.33 0.44 0.45 0.39 0.39 0.36 0.33 0.32 0.40 0.42 0.38 0.33 0.33 0.26 0.25 0.27
0.53 0.54 0.53 0.53 0.52 0.53 0.56 0.58 0.57 0.57 0.57 0.52 0.36 0.29 0.32 0.31 0.17 0.18 0.23 0.24 0.25 0.25 0.28 0.32 0.31 0.32 0.35 0.38 0.35 0.40 0.39 0.43 0.44 0.43 0.45 0.47 0.38 0.30 0.33 0.36 0.38 0.34 0.34 0.34 0.33 0.33 0.26
0.53 0.50 0.48 0.44 0.40 0.40 0.43 0.46 0.54 0.61 0.61 0.53 0.38 0.25 0.25 0.25 0.24 0.19 0.16 0.14 0.15 0.21 0.27 0.32 0.31 0.31 0.30 0.31 0.40 0.39 0.40 0.46 0.50 0.50 0.52 0.53 0.41 0.35 0.26 0.28 0.34 0.30 0.32 0.34 0.33 0.27 0.24
0.49 0.45 0.40 0.41 0.43 0.47 0.48 0.47 0.45 0.54 0.60 0.54 0.39 0.27 0.29 0.18 0.19 0.21 0.20 0.17 0.14 0.14 0.25 0.28 0.28 0.27 0.27 0.24 0.26 0.32 0.39 0.44 0.52 0.53 0.51 0.48 0.39 0.41 0.39 0.42 0.43 0.37 0.34 0.34 0.31 0.30 0.27
0.42 0.39 0.41 0.40 0.41 0.43 0.48 0.46 0.46 0.51 0.57 0.46 0.34 0.32 0.32 0.26 0.24 0.21 0.20 0.16 0.16 0.15 0.15 0.15 0.18 0.20 0.25 0.25 0.27 0.25 0.30 0.33 0.36 0.49 0.44 0.50 0.40 0.43 0.37 0.42 0.43 0.40 0.41 0.38 0.34 0.33 0.33
0.39 0.41 0.44 0.42 0.41 0.40 0.43 0.50 0.53 0.54 0.57 0.45 0.45 0.45 0.37 0.27 0.23 0.20 0.18 0.17 0.17 0.19 0.18 0.17 0.18 0.20 0.20 0.25 0.28 0.31 0.34 0.36 0.37 0.38 0.42 0.44 0.38 0.33 0.28 0.37 0.38 0.34 0.36 0.38 0.38 0.37 0.34
0.41 0.43 0.45 0.47 0.48 0.46 0.43 0.40 0.44 0.46 0.51 0.52 0.47 0.43 0.32 0.23 0.24 0.20 0.20 0.19 0.18 0.21 0.20 0.20 0.20 0.19 0.26 0.32 0.33 0.34 0.33 0.34 0.38 0.45 0.48 0.41 0.40 0.39 0.29 0.36 0.24 0.33 0.41 0.38 0.34 0.33 0.34
0.41 0.43 0.43 0.47 0.48 0.51 0.51 0.49 0.40 0.39 0.44 0.48 0.49 0.42 0.35 0.23 0.24 0.21 0.21 0.20 0.20 0.22 0.19 0.20 0.20 0.21 0.24 0.27 0.26 0.23 0.24 0.29 0.29 0.37 0.43 0.47 0.42 0.35 0.30 0.29 0.34 0.36 0.38 0.37 0.35 0.33 0.39
0.40 0.40 0.40 0.42 0.48 0.50 0.52 0.51 0.52 0.39 0.41 0.51 0.52 0.51 0.41 0.28 0.23 0.24 0.22 0.21 0.20 0.19 0.19 0.19 0.23 0.24 0.22 0.22 0.22 0.20 0.18 0.23 0.25 0.30 0.39 0.41 0.41 0.34 0.31 0.25 0.23 0.32 0.41 0.48 0.48 0.31 0.43
0.37 0.39 0.40 0.44 0.48 0.49 0.52 0.55 0.53 0.51 0.38 0.42 0.50 0.54 0.42 0.29 0.29 0.30 0.23 0.22 0.24 0.22 0.19 0.19 0.22 0.18 0.21 0.16 0.16 0.16 0.19 0.27 0.22 0.24 0.27 0.30 0.29 0.24 0.24 0.25 0.26 0.31 0.34 0.40 0.32 0.33 0.43
0.35 0.37 0.39 0.42 0.46 0.50 0.51 0.53 0.57 0.53 0.48 0.38 0.38 0.57 0.44 0.31 0.31 0.32 0.29 0.25 0.25 0.25 0.20 0.22 0.22 0.19 0.18 0.20 0.21 0.21 0.22 0.24 0.24 0.28 0.28 0.27 0.29 0.26 0.28 0.26 0.22 0.39 0.39 0.30 0.36 0.45 0.48
0.34 0.37 0.38 0.43 0.46 0.50 0.50 0.52 0.57 0.56 0.51 0.46 0.30 0.49 0.57 0.39 0.32 0.38 0.37 0.37 0.32 0.30 0.28 0.27 0.22 0.22 0.20 0.16 0.20 0.21 0.20 0.21 0.23 0.20 0.33 0.26 0.31 0.29 0.30 0.34 0.48 0.49 0.49 0.51 0.51 0.49 0.49
Wind_Speed
19 20 21 22 22 22 23 23 24 24 24 24 24 24 24 24 24 23 22 22 22 22 23 23 22 22 21 21 22 20 16 14 16 18 19 20 19 19 18 17 20 19 18 19 17 17 18
21 22 23 23 24 25 25 25 26 26 26 26 26 27 27 26 27 27 27 26 26 25 24 25 25 24 24 26 23 23 22 22 21 20 20 21 18 21 19 20 20 15 18 21 19 19 19
24 25 25 26 27 28 28 29 30 30 30 30 30 30 30 30 30 30 30 30 30 29 27 26 26 27 29 29 24 23 23 24 24 23 23 23 23 20 18 20 21 18 19 21 21 20 20
27 27 29 30 31 31 32 32 33 33 34 34 34 34 34 34 34 34 33 33 33 32 30 28 28 29 31 28 32 30 28 26 25 25 25 24 24 24 23 18 17 19 19 18 19 20 19
29 31 31 32 33 34 35 36 37 38 38 38 39 39 39 39 39 39 38 38 35 32 31 30 29 30 32 26 31 33 32 29 28 27 25 24 23 24 22 21 20 21 19 21 20 20 17
32 33 34 35 36 37 38 38 39 40 41 42 42 43 43 43 43 43 42 41 37 34 31 30 33 30 33 29 27 29 32 31 28 28 27 27 26 26 25 24 22 21 23 22 22 21 22
33 35 36 37 38 39 40 41 42 43 44 45 46 47 47 47 46 46 44 38 36 35 37 35 32 34 33 29 26 29 30 30 30 30 29 30 29 32 31 31 28 26 25 22 21 20 20
36 37 39 40 42 43 43 44 45 46 47 48 49 50 50 50 49 48 42 39 38 39 43 45 45 44 41 34 32 32 31 31 32 34 31 30 38 34 31 32 32 32 31 29 25 21 23
38 39 41 43 45 45 46 46 48 50 51 52 53 53 52 53 51 43 42 43 40 41 44 47 48 47 45 43 41 39 37 35 34 35 35 37 30 34 34 34 33 31 32 28 26 23 26
41 42 45 46 48 49 49 51 52 53 54 55 56 56 55 54 47 44 42 38 39 40 40 46 42 44 45 42 46 45 44 38 36 39 37 37 39 33 32 36 32 33 29 28 27 24 24
43 46 48 50 51 51 52 53 54 54 56 58 58 56 55 53 53 47 45 46 40 38 36 38 39 38 36 44 36 39 46 45 44 38 34 37 33 37 38 34 33 30 25 25 26 26 25
47 49 50 52 52 53 54 54 55 56 58 59 58 56 55 51 47 47 44 41 39 37 37 40 35 33 34 42 39 34 37 39 38 40 41 40 31 31 36 32 31 26 23 22 23 24 27
50 52 53 53 53 54 54 55 56 58 59 60 57 54 51 46 39 37 35 32 32 36 38 45 41 38 34 35 39 37 39 44 37 35 43 41 37 32 30 27 28 28 24 22 23 24 28
52 53 54 54 55 54 55 57 57 59 59 58 55 51 43 36 32 28 25 23 27 33 38 41 30 47 43 39 38 39 37 40 44 38 30 37 35 38 37 35 30 33 30 25 25 24 24
53 54 54 54 54 55 57 57 59 60 58 55 51 41 34 26 22 19 20 21 22 23 28 32 39 39 33 35 35 36 40 42 40 45 33 32 35 32 35 34 33 31 36 31 28 27 23
54 54 54 56 57 58 59 60 60 58 54 51 45 36 28 22 24 21 18 22 22 22 29 33 37 28 37 40 36 32 34 37 43 42 42 31 26 28 28 29 32 31 30 27 29 26 27
55 55 56 58 59 60 60 60 59 55 51 47 37 29 24 24 24 19 17 19 21 20 20 19 32 34 28 35 36 40 35 30 35 37 39 35 27 24 26 32 32 28 30 30 28 30 25
56 56 58 59 61 61 62 60 58 52 47 40 32 24 23 25 19 14 12 12 21 19 18 19 23 32 30 32 27 32 42 41 24 25 36 37 28 27 30 25 32 33 31 32 26 26 28
56 58 59 60 62 62 62 60 56 50 42 37 28 26 22 18 15 15 17 19 16 17 16 13 13 14 22 26 23 29 30 31 27 25 23 23 29 25 24 27 29 33 35 35 34 27 29
56 56 58 60 61 63 62 59 53 46 39 34 25 22 19 15 15 16 17 18 20 17 16 14 16 11 14 18 19 22 25 24 27 27 27 21 29 33 29 26 25 29 35 37 34 30 33
55 56 57 59 61 64 64 58 50 42 35 27 22 21 19 17 18 19 19 19 20 20 14 15 13 12 14 14 20 20 15 18 28 25 25 26 25 25 26 22 21 25 29 34 38 39 31
53 55 56 58 61 63 62 55 47 39 33 25 22 20 20 21 20 21 20 19 19 16 18 16 18 20 19 17 17 24 29 25 25 24 28 29 24 21 27 24 23 25 26 30 36 37 38
53 54 56 57 58 60 60 54 46 39 31 24 22 24 21 20 19 19 20 20 19 20 17 19 19 21 21 24 25 24 28 34 35 33 29 29 29 26 27 27 30 28 34 32 31 33 35
52 54 55 56 56 57 56 53 48 40 32 27 23 22 20 18 18 19 21 21 21 19 20 19 19 18 17 22 25 27 30 30 32 33 34 30 31 27 29 22 29 32 30 32 34 36 38
52 53 54 54 56 55 53 51 49 43 36 28 27 19 18 18 18 20 20 20 21 20 20 21 19 19 20 18 16 17 17 22 29 34 36 32 25 22 25 25 22 24 24 27 28 31 32
51 52 53 54 54 54 52 49 47 45 36 26 20 16 14 17 16 20 20 19 18 19 17 18 20 19 20 16 13 11 10 12 12 21 36 36 35 30 24 23 23 19 20 26 22 27 22
50 52 53 54 53 52 50 48 45 43 39 29 21 16 14 16 20 19 18 16 14 16 17 19 18 21 16 15 15 13 13 13 9 9 12 32 34 35 34 30 28 29 26 19 18 21 17
49 51 52 53 53 51 50 47 45 41 39 33 24 18 16 18 17 19 18 15 15 16 16 18 17 12 14 15 15 13 12 10 12 10 5 9 20 26 30 28 29 23 22 24 23 20 18
49 50 52 52 52 50 49 46 44 40 36 34 25 19 17 16 16 16 15 17 18 19 19 16 16 15 14 15 15 15 18 17 15 11 9 6 7 11 10 20 22 21 22 20 20 19 19
Wind_Direction
345 342 339 338 338 336 334 330 328 327 325 322 319 315 311 309 307 306 302 298 294 284 273 267 262 259 257 250 248 248 244 234 229 231 233 233 233 233 237 239 238 238 248 252 249 249 251
346 342 340 337 334 331 330 329 327 324 321 318 316 314 312 309 304 299 298 295 292 286 275 266 261 257 253 252 255 245 243 240 239 235 235 232 237 236 246 243 241 243 250 250 247 250 253
341 338 335 332 329 327 323 321 320 318 317 316 314 311 308 306 303 301 296 291 289 283 274 266 261 256 254 249 251 246 243 243 240 238 238 237 239 243 242 247 246 249 253 252 249 248 253
335 333 330 327 325 323 321 319 317 314 312 310 308 306 304 302 299 297 295 292 287 279 271 265 260 259 257 255 249 246 244 243 241 241 242 242 240 243 242 246 248 247 250 253 250 241 251
332 330 328 326 323 321 318 317 315 312 310 308 305 303 301 299 296 294 291 288 284 277 268 262 259 257 262 256 248 245 241 241 240 239 239 240 239 241 238 241 246 242 251 248 259 236 246
330 328 326 325 323 321 319 317 314 312 310 307 305 302 299 297 294 292 289 284 277 272 265 262 258 259 258 255 249 243 239 238 238 236 237 236 238 237 235 233 238 245 244 252 253 243 244
330 328 327 325 323 321 319 317 315 313 311 308 305 302 299 296 294 291 286 279 271 266 258 255 255 254 262 252 249 245 233 233 236 235 237 234 236 233 234 236 243 252 253 257 261 243 246
329 328 326 324 323 321 319 317 315 314 311 309 306 303 299 297 294 289 280 274 270 267 266 257 256 256 254 254 252 243 233 234 234 236 237 237 238 238 240 241 242 246 252 256 260 251 253
329 328 326 325 322 320 318 316 314 313 310 309 307 304 301 297 293 283 280 274 271 267 262 258 252 252 251 246 246 240 234 238 236 234 234 238 245 238 239 241 244 244 245 252 252 253 257
329 327 326 324 323 320 317 316 314 314 312 310 308 305 301 298 290 286 279 274 273 266 261 259 251 252 244 243 248 240 236 237 241 236 235 243 240 240 237 238 240 246 248 249 254 255 257
328 327 325 324 322 320 318 317 315 314 313 312 309 306 303 299 288 281 276 274 269 259 256 257 251 249 245 234 247 243 235 236 238 237 233 241 237 236 239 240 238 245 247 249 247 251 258
328 327 325 324 322 321 320 319 318 317 315 313 311 309 306 301 292 284 277 270 261 247 250 250 246 246 243 235 240 247 231 235 240 240 240 240 242 238 239 239 237 235 242 247 251 250 254
328 327 326 325 324 323 322 321 318 317 316 316 315 313 311 304 293 286 278 269 254 247 246 251 245 242 243 241 240 236 233 229 232 232 236 236 237 240 236 235 233 232 232 245 250 246 252
328 328 327 326 325 323 322 321 321 320 318 317 318 317 313 306 298 288 276 264 256 256 252 255 255 241 238 236 238 231 232 232 232 237 238 233 236 231 234 235 235 235 232 236 242 246 255
329 328 328 327 326 325 324 322 321 320 320 320 321 320 315 311 310 296 272 259 261 262 262 257 260 250 236 239 236 233 232 233 233 230 235 234 241 237 231 235 228 236 235 241 255 255 255
331 330 330 328 327 325 324 322 321 320 320 321 321 319 312 309 310 293 276 262 263 271 284 269 261 250 256 248 237 231 230 234 234 229 231 238 238 239 236 233 237 232 233 236 240 241 248
331 331 330 329 327 326 325 323 322 320 320 320 319 318 313 311 311 290 271 269 277 281 288 281 261 250 256 252 254 230 230 235 234 232 226 231 235 235 229 232 225 230 235 235 237 240 243
332 332 331 330 329 327 326 324 323 321 319 317 314 311 317 315 311 295 282 289 288 283 286 289 275 250 254 257 245 236 227 230 231 238 220 224 232 233 234 239 233 232 232 229 234 240 243
334 333 333 332 331 330 328 326 323 321 319 313 306 306 314 312 307 304 288 290 290 293 289 292 294 262 267 253 233 236 233 226 229 228 224 226 224 232 231 235 235 233 232 235 240 247 241
336 337 337 337 336 335 333 329 325 322 316 308 303 302 307 310 307 306 305 295 292 286 276 289 284 278 282 268 243 241 238 230 231 230 227 238 233 230 233 240 233 236 234 233 234 241 244
337 338 340 340 340 339 337 333 329 325 319 312 295 297 293 301 304 310 306 298 292 290 267 284 269 291 283 283 256 236 248 249 240 228 229 226 233 233 241 247 239 238 234 231 231 238 240
338 340 341 342 343 344 344 342 337 331 322 309 294 288 297 287 296 302 308 299 295 291 290 281 277 285 275 259 269 258 255 250 243 234 229 223 225 238 239 250 246 245 244 236 236 240 245
339 341 342 342 343 346 348 347 344 338 328 313 299 293 278 284 293 298 300 299 295 290 273 280 280 284 279 267 265 263 258 245 241 242 234 226 229 235 244 250 256 249 243 246 247 246 246
340 341 342 343 344 345 347 347 346 341 333 316 305 297 283 275 281 292 297 300 297 293 285 280 279 283 278 281 273 259 255 244 235 233 232 231 231 236 244 250 249 246 250 247 249 252 250
340 341 342 343 344 345 345 346 348 344 337 323 309 288 267 278 279 295 295 297 300 292 286 280 272 280 284 282 272 266 258 243 239 235 230 229 228 234 237 237 258 256 251 246 246 256 256
339 340 342 342 343 344 344 343 346 348 341 333 325 304 282 270 279 290 296 296 300 299 290 276 281 275 280 260 260 249 251 247 245 248 231 230 232 234 238 241 241 248 252 250 253 259 262
338 340 341 342 343 343 344 344 343 345 346 334 320 305 289 284 285 282 294 296 301 302 292 290 281 291 260 245 246 246 244 245 252 268 255 230 230 233 237 243 250 247 248 244 245 257 268
339 339 341 341 341 341 342 342 342 342 344 342 320 298 289 289 292 287 287 284 297 295 293 297 295 275 268 246 246 247 246 241 246 265 264 245 227 231 235 240 246 251 247 241 253 253 267
338 339 340 341 341 340 340 341 341 341 340 343 333 312 293 283 287 296 287 284 291 293 294 296 280 275 256 250 248 251 251 245 242 245 241 221 250 231 239 243 249 257 257 254 252 251 254